AKDT,Max TemperatureF,Mean TemperatureF,Min TemperatureF,Max Dew PointF,MeanDew PointF,Min DewpointF,Max Humidity, Mean Humidity, Min Humidity, Max Sea Level PressureIn, Mean Sea Level PressureIn, Min Sea Level PressureIn, Max VisibilityMiles, Mean VisibilityMiles, Min VisibilityMiles, Max Wind SpeedMPH, Mean Wind SpeedMPH, Max Gust SpeedMPH,PrecipitationIn, CloudCover, Events, WindDirDegrees
2013-10-1,50,48,46,46,45,43,0,0,0,29.95,29.76,29.57,10,10,6,20,9,26,0.10,8,Rain,123
2013-10-2,59,49,38,48,45,39,0,0,0,30.19,30.12,29.98,10,10,10,6,1,9,0.10,3,Rain,290
2013-10-3,52,46,39,49,46,39,0,0,0,30.19,30.09,29.91,10,7,2,35,18,53,0.76,6,Rain,136
2013-10-4,56,54,51,54,51,46,0,0,0,29.99,29.91,29.87,10,8,2,12,13,18,0.47,8,Rain,165
2013-10-5,53,51,48,50,49,47,0,0,0,30.08,30.00,29.76,10,9,3,10,6,20,0.18,8,Rain,167
2013-10-6,54,52,49,54,52,48,0,0,0,29.75,29.56,29.48,10,4,1,25,11,41,1.86,8,Rain,130
2013-10-7,57,53,48,52,46,41,0,0,0,29.99,29.69,29.50,10,10,6,21,9,31,0.28,7,Rain,309
2013-10-8,56,49,42,48,44,39,0,0,0,30.17,30.09,29.97,10,10,10,9,5,13,0.00,6,,138
2013-10-9,55,52,49,52,47,41,0,0,0,29.94,29.79,29.61,10,7,3,23,12,39,0.87,7,Rain,194
2013-10-10,55,49,43,44,42,41,0,0,0,30.09,30.02,29.90,10,10,10,8,2,12,0.00,7,,270
2013-10-11,50,46,41,48,46,43,0,0,0,30.21,30.13,30.08,10,9,3,9,3,13,0.22,8,Rain,118
2013-10-12,50,44,37,46,43,37,0,0,0,30.26,30.24,30.21,10,8,2,6,1,8,0.00,5,,115
2013-10-13,50,49,47,48,47,45,0,0,0,30.35,30.30,30.26,10,7,2,17,11,24,0.40,8,Rain,123
2013-10-14,52,51,49,54,51,48,0,0,0,30.36,30.33,30.31,10,6,2,18,12,26,0.21,8,Rain,150
2013-10-15,55,50,45,50,45,42,0,0,0,30.40,30.36,30.31,10,10,6,16,7,22,0.00,3,Rain,329
2013-10-16,55,49,42,44,42,41,0,0,0,30.38,30.32,30.27,10,10,10,16,6,21,0.00,1,,336
2013-10-17,55,46,36,46,42,36,0,0,0,30.33,30.31,30.28,10,10,10,7,1,9,0.00,2,,306
2013-10-18,50,48,45,46,44,42,0,0,0,30.34,30.31,30.27,10,10,10,9,2,13,0.00,5,,322
2013-10-19,48,46,43,49,47,43,0,0,0,30.27,30.25,30.24,10,7,2,9,3,13,0.13,7,Rain,139
2013-10-20,53,51,49,54,51,48,0,0,0,30.26,30.23,30.19,10,6,0,9,5,13,0.06,8,Fog-Rain,139
2013-10-21,53,52,50,52,51,50,0,0,0,30.21,30.18,30.16,10,9,5,5,1,7,0.01,8,Rain,147
2013-10-22,54,51,48,53,50,48,0,0,0,30.20,30.13,30.05,10,8,0,3,0,5,0.01,7,Fog-Rain,-1
2013-10-23,51,48,44,50,47,44,0,0,0,30.05,30.01,29.98,10,3,0,12,3,16,0.01,7,Fog,153
2013-10-24,50,48,45,48,47,46,0,0,0,30.20,30.12,30.06,10,10,10,7,1,8,0.00,8,,133
2013-10-25,49,48,47,49,47,46,0,0,0,30.29,30.24,30.20,10,7,2,12,3,15,0.03,8,Rain,139
2013-10-26,56,53,49,54,49,42,0,0,0,30.43,30.28,30.23,10,7,1,14,9,25,0.28,6,Rain,146
2013-10-27,55,50,45,44,42,40,0,0,0,30.52,30.47,30.40,10,10,10,12,6,18,0.00,4,,334
2013-10-28,56,45,34,44,39,35,0,0,0,30.39,30.19,29.99,10,10,5,6,0,8,0.00,3,,-1
2013-10-29,49,45,40,47,45,39,0,0,0,29.97,29.92,29.86,10,9,3,14,6,18,0.02,8,Rain,129
2013-10-30,51,49,47,52,47,41,0,0,0,29.85,29.70,29.61,10,6,2,21,11,33,0.69,7,Rain,142
2013-10-31,52,49,46,49,46,41,0,0,0,30.07,29.91,29.79,10,9,5,10,4,17,0.18,7,Rain,192